Wind_Speed
9 9 8 7 7 7 7 8 7 8 8 7 7 8 8 9 10 11 13 14 16 16 15 14 15 16 17 16 14 13 11 10 10 11 11 12 12 10 10 12 11 10 9 9 9 9 10 10 9 8 9 9 8 6 5 4 3 3 3 4 4 5 6 7 7 8 8 8 9 9 9 8 8 8 7 6 6 6 6 6 6 7 8 8 8
10 9 8 7 7 7 8 8 8 8 8 8 8 9 9 10 12 13 14 15 16 15 14 15 16 18 18 15 13 13 12 11 9 8 8 9 10 8 9 11 11 11 9 8 8 8 10 11 10 9 10 10 10 9 7 6 5 4 4 4 5 5 6 7 7 8 8 8 9 9 9 9 9 9 8 7 7 7 7 7 7 7 8 9 8
11 10 9 8 8 8 8 7 8 8 7 8 8 9 10 11 13 15 16 17 17 15 14 17 19 18 17 13 11 12 12 11 9 7 5 4 7 7 8 9 10 11 10 9 8 8 9 10 11 11 11 11 10 11 10 8 7 7 6 5 5 6 6 7 7 8 8 9 9 9 9 9 9 9 9 9 9 9 8 8 8 9 9 10 10
10 10 9 9 9 9 8 7 8 8 8 8 8 9 12 12 13 15 17 17 16 15 16 19 19 17 14 12 10 10 11 11 9 6 4 2 3 6 7 6 8 10 10 10 9 9 9 10 11 12 12 12 12 12 12 10 9 9 9 8 7 6 7 7 8 8 9 9 9 9 9 9 10 10 10 10 10 10 10 9 9 10 10 10 10
10 10 9 9 10 9 8 8 8 9 9 9 9 10 13 13 15 15 15 15 15 16 18 19 18 15 13 12 10 9 9 9 8 7 5 4 2 3 5 5 6 8 9 10 10 10 10 11 12 13 13 13 13 14 14 13 11 10 10 10 10 9 8 8 9 9 10 10 10 10 10 10 10 10 11 11 11 11 11 11 10 11 11 11 11
9 9 9 9 10 9 8 9 10 10 10 10 9 11 14 14 16 16 15 15 16 17 17 18 17 13 13 11 9 8 9 9 8 8 6 5 4 3 3 4 6 7 8 10 11 11 12 12 12 13 14 14 14 14 15 16 14 12 12 12 12 11 10 9 10 10 10 11 11 11 11 12 12 12 12 11 12 12 12 12 11 11 11 12 12
9 9 10 10 10 10 9 10 10 10 11 11 10 11 14 15 16 16 15 16 17 18 17 17 15 11 10 10 8 8 9 8 8 8 6 5 5 4 4 4 4 6 7 9 11 12 13 13 13 14 14 15 15 16 17 18 17 17 15 14 14 13 13 12 11 11 11 11 12 12 13 13 13 13 13 12 12 12 12 12 12 12 12 12 12
10 10 11 11 10 10 10 10 10 11 13 12 12 12 13 15 16 15 16 17 19 20 18 17 15 11 9 10 9 8 9 9 8 7 6 6 5 3 3 3 4 5 7 8 8 10 13 14 15 15 15 16 16 16 17 18 19 20 19 18 18 17 15 13 13 13 12 12 12 13 13 13 14 14 14 14 14 13 13 13 13 13 12 12 13
11 11 11 11 11 11 12 11 10 13 15 13 14 14 14 15 16 15 16 19 20 20 18 16 17 15 12 11 9 9 9 8 8 7 5 3 4 4 3 3 4 4 5 6 6 8 10 13 16 17 16 16 17 17 17 17 19 20 20 21 21 20 16 13 14 15 15 15 14 13 13 13 15 15 15 15 15 15 15 15 14 14 13 13 13
13 13 12 12 13 13 13 12 11 14 15 14 14 15 15 15 16 17 19 20 20 19 17 15 16 16 14 12 9 8 8 7 7 8 6 3 3 4 3 4 5 4 5 5 6 7 9 10 14 17 18 17 17 18 18 18 18 19 21 22 23 22 17 13 15 18 18 17 15 15 14 14 15 16 16 17 16 16 17 17 17 16 15 15 15
15 15 14 14 14 14 14 14 13 15 15 14 15 16 16 16 17 19 20 20 19 18 16 15 15 14 14 13 10 8 8 7 6 6 7 5 5 4 4 5 6 6 5 6 6 7 8 8 9 13 16 17 18 19 19 19 18 19 20 21 23 23 18 16 18 20 19 16 15 17 17 17 17 17 17 18 17 18 19 19 19 18 17 17 17
16 16 16 15 16 16 15 15 15 14 13 14 16 17 16 16 17 20 21 20 19 17 15 15 14 13 13 11 8 7 6 5 6 7 8 6 6 6 6 6 6 6 6 7 7 7 7 7 7 9 11 13 16 18 20 20 20 20 20 20 21 21 20 19 20 20 19 17 17 19 19 19 20 20 20 19 19 19 19 20 20 20 20 19 19
17 17 15 15 16 16 15 16 15 13 12 15 18 17 15 16 19 20 20 18 18 17 15 14 13 11 11 9 7 6 4 5 7 8 8 7 6 8 10 9 6 6 7 7 7 8 7 7 7 8 10 11 13 15 17 19 20 20 20 20 20 20 20 20 20 21 20 20 20 20 20 21 22 22 22 22 21 20 20 21 21 20 21 21 21
18 17 15 15 15 15 15 14 13 13 15 18 18 16 16 18 18 18 18 16 16 17 15 13 12 9 9 9 7 4 3 5 7 7 6 5 5 7 10 10 8 8 9 9 9 9 8 9 9 9 10 11 12 13 14 17 18 19 20 20 21 20 20 21 21 21 22 22 22 22 21 22 23 23 22 23 23 22 21 21 21 21 21 22 22
17 14 13 13 13 13 13 12 12 15 17 17 16 15 15 16 16 16 16 15 15 15 13 12 11 10 7 7 7 4 2 6 9 7 5 4 3 5 9 9 10 10 10 11 11 10 10 10 11 11 12 12 12 13 14 16 17 17 18 19 19 20 21 21 21 22 22 23 23 24 24 24 25 25 24 24 24 24 23 23 22 22 22 22 23
12 10 10 11 10 11 11 11 12 12 13 13 13 13 13 13 14 14 13 12 13 12 10 10 10 10 7 6 7 4 2 6 10 7 5 4 4 7 10 10 11 11 11 12 12 13 12 12 13 13 13 14 14 14 14 16 17 17 17 18 19 20 21 21 21 22 22 22 23 24 25 26 27 27 27 26 24 24 25 25 25 24 23 23 23
10 9 9 9 8 8 8 8 9 9 9 9 10 10 11 11 12 12 11 10 10 10 10 9 9 9 8 8 7 3 2 5 7 7 7 3 4 6 9 10 11 11 12 13 13 14 13 13 14 14 14 14 15 16 15 17 18 17 17 18 19 20 21 22 22 22 22 22 22 23 24 25 27 28 29 29 27 25 26 27 27 27 26 25 24
8 7 6 5 5 5 4 4 5 5 6 7 7 8 9 10 11 12 11 11 10 10 9 9 8 8 9 9 8 7 9 9 8 9 9 7 7 7 8 9 10 9 11 11 11 12 12 12 13 14 15 15 16 17 17 18 19 19 18 18 19 20 21 22 23 23 23 23 23 22 23 24 24 26 27 29 29 29 28 29 29 29 29 28 27
7 6 5 4 2 1 1 2 3 4 5 5 6 8 9 10 11 12 12 11 10 9 9 8 7 8 9 9 10 10 11 12 13 12 10 10 11 8 7 7 8 9 11 11 10 10 10 12 12 13 14 15 16 18 18 19 20 20 20 19 20 20 21 22 23 24 24 24 24 24 24 23 23 24 25 26 28 29 30 30 31 31 30 30 30
6 6 4 3 2 1 1 2 3 4 4 5 6 8 9 10 11 12 12 11 10 9 8 7 7 7 8 9 10 11 10 10 11 11 11 11 10 7 5 6 10 13 13 12 11 10 10 11 12 14 14 14 15 17 18 18 18 19 19 19 19 20 21 21 22 24 24 24 24 24 25 25 25 25 25 25 26 27 28 30 32 32 32 32 32
7 6 5 3 2 1 1 2 3 4 5 6 8 9 10 11 11 11 12 12 11 10 9 7 7 7 7 8 9 10 9 8 8 8 10 10 7 6 6 7 12 13 10 10 11 11 12 11 12 14 15 15 15 17 18 19 19 19 19 19 20 20 20 21 22 23 24 25 25 25 25 25 26 26 26 26 26 27 28 29 30 31 32 32 33
7 6 5 3 2 1 1 2 3 5 7 8 9 9 10 11 12 12 11 11 11 11 10 9 9 8 8 8 9 9 8 8 8 8 10 11 9 9 8 8 11 11 12 14 14 15 15 13 14 14 14 15 15 16 18 19 19 20 20 20 21 21 21 22 22 23 23 25 25 26 27 27 27 27 28 28 28 28 28 29 30 31 32 33 34
8 7 6 5 4 3 3 3 4 6 7 8 10 10 11 11 12 12 11 11 11 11 11 10 10 10 10 10 9 10 10 9 10 10 11 12 11 12 11 10 13 15 18 20 17 17 16 14 15 15 13 15 16 16 17 18 19 19 20 21 21 22 23 23 23 24 24 25 25 26 26 27 28 28 29 30 30 30 29 30 31 32 32 33 34
9 7 6 6 5 4 4 4 5 6 8 9 10 11 12 11 11 11 12 12 11 11 12 11 11 10 11 12 11 11 11 11 11 12 12 13 13 13 12 13 15 15 17 17 15 15 15 16 17 18 17 16 17 18 19 20 21 19 19 20 21 22 23 24 24 24 25 25 26 26 26 27 27 28 28 29 30 31 31 31 32 32 33 34 35
9 8 7 7 6 5 6 6 7 8 9 10 11 12 12 12 12 12 12 12 12 12 12 12 12 11 12 13 12 12 11 11 11 11 11 12 12 11 11 12 14 14 13 12 11 12 14 15 16 19 21 20 20 21 21 22 25 24 22 22 22 23 23 24 25 25 25 25 26 26 27 27 27 27 28 29 29 30 31 31 32 33 33 34 35
11 10 9 9 8 8 8 9 9 10 10 12 12 12 13 13 13 12 12 12 12 13 13 13 12 11 12 12 13 13 11 9 9 9 9 10 10 11 12 12 14 15 12 10 10 13 14 15 16 19 21 21 21 21 23 24 26 27 25 24 25 24 24 24 25 26 26 26 26 27 27 28 28 28 28 28 29 29 30 31 31 32 33 34 35
13 13 12 12 11 11 11 11 11 11 12 13 13 14 14 14 14 13 13 12 12 13 14 13 12 12 12 12 12 12 10 9 9 10 10 11 11 13 13 14 15 16 14 11 12 13 15 16 17 19 20 19 18 19 22 23 25 27 26 25 25 24 24 24 25 27 27 27 28 28 29 29 29 30 30 30 30 30 30 31 31 32 32 32 33
16 15 15 14 14 14 14 13 12 12 12 13 14 15 15 16 16 15 15 14 13 14 14 14 13 12 12 12 12 12 10 9 10 11 11 11 12 13 14 16 17 17 17 16 13 13 15 16 16 19 21 20 18 18 20 21 22 24 24 24 25 25 25 24 24 26 28 29 29 30 30 30 30 31 32 32 32 32 32 32 32 33 33 33 33
18 17 17 16 15 15 15 15 15 14 14 14 15 16 17 17 17 17 17 16 14 14 15 15 14 13 13 13 12 12 11 10 11 11 11 11 12 14 15 16 18 18 20 21 19 17 17 18 18 20 22 24 24 22 22 22 21 22 23 24 25 26 27 27 25 25 26 28 28 29 30 30 31 31 31 32 33 34 34 34 33 33 34 35 35
20 20 19 18 17 17 17 19 20 20 20 19 18 18 19 19 19 19 18 17 16 15 15 16 16 15 14 13 12 11 12 11 11 11 11 11 12 13 14 15 18 19 20 22 22 21 20 21 22 21 23 27 29 28 26 25 24 25 24 24 25 26 27 27 27 26 25 26 27 27 28 29 29 30 30 31 32 33 34 35 35 35 34 35 36
22 23 23 21 20 19 20 23 25 27 28 26 24 24 24 23 21 20 20 19 17 16 16 16 17 16 15 14 12 11 12 11 11 12 11 10 11 12 13 15 17 18 20 21 21 20 22 24 24 24 26 28 28 28 28 27 27 28 26 25 25 26 26 27 27 26 25 25 26 26 27 28 28 29 30 30 31 32 33 34 35 36 35 35 36
25 26 26 25 24 23 24 27 29 30 30 30 29 27 27 28 25 22 22 20 18 18 17 17 18 17 15 14 12 11 11 11 11 12 11 11 12 13 14 15 16 17 19 21 21 20 21 25 26 26 27 28 28 28 28 28 28 28 28 27 26 27 27 27 27 27 27 28 28 28 28 28 29 30 30 30 31 32 33 33 34 35 36 36 36
29 28 28 28 28 28 31 34 35 35 33 32 33 30 30 31 28 25 23 21 20 19 18 18 19 18 16 14 13 12 11 11 11 11 11 12 14 15 15 16 16 18 19 21 23 23 22 23 26 26 26 29 30 28 28 29 29 29 29 29 29 29 29 28 28 28 30 31 31 31 30 30 30 31 32 32 32 33 33 34 34 35 36 36 36
31 30 31 32 33 35 37 38 39 39 37 37 37 36 36 34 29 26 25 23 22 21 20 20 19 19 17 15 13 13 12 12 11 11 12 13 15 16 16 17 17 18 20 22 24 26 25 24 25 25 26 27 30 30 29 29 30 30 30 31 31 31 29 29 28 29 30 32 32 32 31 30 30 31 33 35 35 35 35 35 35 35 36 37 37
34 34 34 35 36 38 39 40 39 39 40 42 40 38 38 37 32 29 28 27 25 22 21 21 20 19 18 16 15 15 14 13 12 12 13 14 15 16 16 18 18 19 21 23 25 27 28 27 26 25 26 27 28 29 29 29 29 30 30 31 31 30 30 30 31 31 32 33 34 35 34 33 32 32 33 34 36 36 37 37 36 36 37 37 38
32 33 34 36 37 38 39 40 39 39 42 44 42 38 39 40 37 32 30 30 29 25 22 22 21 19 18 17 16 17 16 14 14 14 14 14 15 16 16 17 18 19 20 23 25 28 29 29 28 28 29 29 28 27 27 28 29 30 30 31 31 31 31 32 34 35 34 34 35 35 35 35 34 33 33 34 35 36 37 38 37 37 37 38 39
29 29 30 33 37 40 42 42 41 41 42 44 44 42 40 39 38 35 33 31 31 29 25 23 22 20 19 18 18 19 18 16 15 14 14 14 15 16 17 18 19 21 23 24 26 28 30 31 30 29 28 28 27 27 27 27 27 28 30 31 31 32 33 34 34 34 34 34 35 35 35 35 34 34 34 34 35 36 37 38 37 37 37 38 39
30 31 33 35 37 41 44 45 44 43 43 44 46 45 43 41 38 38 37 32 31 32 30 27 23 20 19 19 19 21 20 18 17 15 14 15 16 17 19 20 21 24 26 26 27 29 31 32 31 29 27 26 27 28 28 28 27 28 29 31 32 33 35 36 34 33 33 34 36 36 36 36 36 36 35 34 34 35 37 37 37 37 38 39 39
34 35 37 39 39 42 45 47 47 46 46 46 47 47 45 43 42 41 39 37 35 36 36 33 29 26 23 20 20 23 21 19 18 17 16 16 17 19 21 22 24 26 27 27 28 29 31 33 32 31 29 27 27 28 29 29 29 28 30 32 33 33 34 35 35 35 36 37 36 35 35 36 37 36 35 35 34 34 35 36 37 39 40 40 40
36 36 37 38 40 43 47 48 49 48 49 49 49 48 46 44 44 43 42 42 41 39 39 39 38 37 31 23 21 24 22 20 20 18 18 19 20 21 22 24 26 28 28 28 28 29 31 33 34 33 30 29 29 29 29 30 30 30 30 31 33 34 35 36 37 37 36 36 35 35 34 36 37 36 34 34 33 33 34 35 37 39 39 40 40
35 35 35 36 39 43 46 48 49 50 52 52 51 50 48 46 45 45 45 45 43 41 41 41 41 41 35 27 24 24 22 21 21 19 19 20 21 23 23 25 27 29 30 30 29 31 33 34 34 32 31 31 30 29 30 31 31 31 32 32 34 35 36 37 38 37 35 34 35 35 35 35 35 35 35 35 34 34 35 36 35 35 36 38 39
32 33 33 35 38 41 44 46 48 51 53 53 52 51 50 48 47 46 46 46 44 41 43 42 40 40 35 30 26 25 23 23 23 20 20 22 23 24 24 26 28 30 31 31 31 33 34 34 33 32 32 32 30 30 30 31 31 31 32 33 33 34 35 36 37 35 32 32 34 36 35 34 34 36 36 36 36 36 36 35 34 34 36 37 37
27 29 31 34 37 40 43 44 45 49 52 53 53 51 51 50 49 48 47 46 45 43 42 41 39 39 35 31 28 26 24 25 25 23 22 23 23 24 26 27 28 29 30 31 32 33 34 34 33 33 32 32 31 31 30 30 29 30 32 33 33 33 35 37 37 35 32 31 33 36 36 34 34 36 37 38 38 37 37 36 35 35 36 37 38
24 26 29 32 35 38 41 42 42 45 50 53 52 51 52 52 51 50 48 47 47 44 41 39 37 37 34 32 30 29 26 26 27 26 25 24 23 26 28 27 26 27 29 31 32 33 33 34 33 33 33 33 33 32 31 31 31 31 32 32 32 34 35 37 38 37 34 32 33 36 36 34 35 38 39 38 38 37 36 37 36 36 36 37 39
24 26 27 30 33 35 38 39 40 42 48 52 49 49 52 53 51 51 50 49 48 44 40 36 35 35 34 32 32 31 28 27 28 28 27 26 27 29 28 25 26 28 29 31 32 33 33 33 33 33 34 35 34 33 33 34 34 32 31 32 32 35 36 37 38 38 35 33 34 36 37 36 37 40 39 36 35 36 36 36 36 36 37 38 40
24 25 26 29 32 33 34 36 38 41 46 48 46 46 49 51 51 52 53 52 48 42 37 34 32 33 34 34 33 30 28 29 30 28 28 28 30 31 27 24 27 29 29 30 32 33 34 34 34 35 36 36 35 35 35 35 34 32 32 33 34 35 37 37 38 36 34 33 34 37 38 36 36 37 36 34 35 36 36 36 36 37 38 40 41
23 23 25 29 31 32 32 34 37 40 41 41 42 44 47 49 50 51 53 53 47 40 35 33 32 32 34 35 34 31 29 30 30 29 30 30 31 32 29 27 28 29 29 30 31 33 34 35 37 38 38 36 36 37 37 35 33 32 33 35 36 36 37 38 38 35 33 32 33 35 38 38 36 37 37 36 36 37 36 36 37 37 39 42 43
21 23 25 28 31 32 32 33 37 39 38 37 39 41 43 46 49 49 50 51 47 39 33 31 31 31 34 35 33 31 30 30 30 29 31 32 33 33 33 32 31 30 30 31 32 33 34 35 36 37 36 35 36 37 36 34 32 33 34 36 36 36 37 38 38 35 32 32 32 34 39 41 39 40 41 38 38 38 37 37 38 40 41 42 44
21 23 26 29 32 33 32 33 35 35 32 31 32 32 32 35 39 41 42 45 44 37 30 27 27 29 32 33 32 31 31 31 30 30 31 32 33 34 34 34 33 33 33 33 33 35 36 37 36 34 33 33 34 35 33 31 31 33 35 35 34 35 37 37 37 36 34 32 31 33 39 41 39 40 42 40 39 39 39 39 41 42 43 43 46
23 27 30 33 33 32 31 31 32 32 31 30 32 33 32 30 31 33 36 38 36 30 24 21 22 25 29 30 30 31 32 31 30 32 32 31 32 33 34 34 35 35 36 35 34 35 37 38 36 33 32 31 31 32 31 29 29 31 33 34 33 35 37 36 36 36 35 33 32 35 40 41 40 40 42 42 42 41 41 42 43 43 44 46 51
28 31 32 31 30 29 29 30 32 33 33 31 30 32 33 33 31 30 31 30 25 20 17 17 19 23 27 29 30 30 30 30 31 31 30 30 30 32 33 35 36 37 38 37 36 35 36 36 36 34 32 31 30 30 29 29 29 30 32 33 34 35 37 37 38 39 38 36 34 36 41 42 40 41 41 43 45 44 42 43 44 44 46 50 54
Wind_Direction
245 243 243 251 263 274 282 291 299 302 306 307 308 314 316 319 323 326 324 324 326 323 317 309 305 307 311 316 320 322 321 313 300 290 277 265 265 269 271 267 261 261 261 260 261 257 256 256 251 247 243 235 231 232 229 228 229 220 209 206 207 210 214 214 211 206 202 200 202 207 210 211 213 213 210 206 216 229 232 237 241 241 239 236 232
248 248 251 258 268 274 277 285 292 294 299 304 304 306 311 315 316 317 319 321 324 319 310 305 307 312 314 316 319 324 329 328 315 295 278 255 250 255 262 259 251 252 258 257 259 259 256 255 253 249 244 234 230 232 231 230 235 242 236 223 219 214 216 218 216 214 210 206 203 206 211 212 216 217 214 210 215 224 231 237 243 248 251 249 242
253 254 259 267 272 274 275 279 283 288 295 295 297 304 307 311 313 315 320 324 325 315 306 305 309 315 315 316 320 324 331 337 330 310 298 257 239 243 251 249 241 243 249 252 254 254 253 253 252 248 244 236 232 233 234 237 239 243 245 240 235 228 226 224 221 219 217 216 211 210 212 214 217 220 221 220 218 221 227 233 239 245 249 251 249
256 259 266 275 278 278 278 276 275 282 286 285 296 305 305 309 311 315 322 324 320 311 307 309 313 318 316 318 324 323 327 336 337 330 326 307 239 236 245 240 232 236 242 246 247 248 248 247 248 248 247 242 238 237 237 239 238 239 243 245 245 241 237 234 230 227 223 222 221 220 220 222 224 225 227 227 224 222 224 229 235 242 245 247 249
257 263 270 274 276 279 280 280 277 277 279 285 301 304 303 309 310 316 322 315 310 307 307 313 318 318 314 318 323 320 324 330 339 345 338 334 315 255 254 246 239 241 242 245 245 246 246 243 243 244 245 244 242 242 243 245 242 239 242 244 244 244 243 241 239 236 232 228 226 225 225 227 229 230 231 232 231 227 225 227 230 237 242 245 246
260 267 272 273 275 280 283 283 280 281 288 295 306 305 303 309 310 315 316 307 305 301 301 310 315 312 309 313 315 316 319 323 339 347 341 347 353 340 313 280 265 260 253 251 250 250 250 247 244 242 242 243 244 245 246 246 244 240 240 242 243 244 245 243 242 242 240 238 235 232 229 228 229 230 232 234 237 236 233 229 227 231 237 241 244
261 265 269 273 276 281 285 285 287 294 297 297 303 303 302 308 311 311 308 304 300 296 301 311 311 304 299 302 306 310 312 316 332 337 335 350 354 347 337 314 295 286 273 261 254 252 253 251 248 245 243 243 245 247 246 244 241 238 235 237 239 239 241 239 239 242 243 242 242 241 239 238 235 234 234 235 237 240 241 238 233 232 234 238 241
261 264 268 274 279 285 283 285 301 305 298 301 308 306 304 306 307 303 300 298 295 296 306 313 308 302 297 297 301 302 303 312 326 332 334 339 333 328 329 313 303 300 291 277 263 254 251 251 250 249 247 245 245 247 251 251 247 242 238 239 240 236 236 239 241 244 246 247 248 249 251 252 251 248 245 242 240 240 243 244 242 239 238 238 240
262 266 271 276 281 282 279 283 301 301 300 311 312 306 303 298 294 292 292 294 294 300 310 310 304 304 305 303 301 297 301 313 322 326 328 317 302 299 292 293 293 284 281 283 278 261 253 252 249 248 248 248 248 248 250 254 255 252 246 246 248 243 236 236 244 247 247 248 250 254 258 259 259 258 256 252 250 248 246 245 245 243 243 242 242
266 270 274 277 280 279 280 285 291 293 300 309 304 299 295 286 282 285 287 292 296 303 309 305 302 305 307 305 299 289 293 305 313 315 311 275 271 286 276 276 281 268 253 258 269 266 262 262 255 250 249 249 252 253 251 251 253 255 253 252 255 253 244 236 244 248 248 249 251 255 259 260 259 260 260 259 258 257 255 252 249 246 243 243 243
269 274 276 278 280 278 280 284 284 289 297 299 294 290 286 279 279 283 287 294 299 303 307 303 301 302 300 300 294 281 281 283 284 292 293 278 259 257 257 254 250 253 248 237 249 261 259 262 258 252 253 254 254 254 254 252 250 251 253 254 258 262 261 252 251 253 255 259 260 256 256 257 258 258 258 259 259 259 259 259 257 253 248 244 243
272 275 276 278 279 277 279 279 277 284 291 290 284 277 273 276 281 287 292 297 300 300 302 302 300 298 296 296 288 278 278 270 261 266 274 271 248 236 245 249 238 243 249 236 236 249 253 252 245 239 246 256 259 258 256 254 252 251 252 255 257 262 266 262 258 260 261 262 259 255 254 257 257 257 255 255 257 258 260 259 258 258 255 251 247
271 271 272 273 273 272 272 272 275 284 286 278 274 270 271 281 289 293 295 298 299 298 300 299 299 299 296 296 286 267 268 270 260 261 266 266 258 250 248 250 250 252 255 251 245 244 250 255 246 236 238 247 257 263 263 259 257 256 256 258 258 258 260 260 259 261 260 258 257 255 254 256 257 257 256 256 256 257 259 259 258 257 256 255 252
268 267 267 267 268 269 267 265 268 271 268 265 271 278 286 290 292 292 292 296 297 295 297 297 296 294 296 306 300 264 260 278 267 265 272 271 269 262 251 248 254 259 257 257 258 254 251 251 250 247 245 243 246 253 260 260 258 259 260 260 261 260 260 260 259 259 258 257 257 257 256 257 258 258 258 258 257 257 258 259 258 256 254 254 253
265 265 266 262 260 264 264 261 258 259 262 268 279 288 291 291 289 289 291 293 290 288 291 293 291 292 302 313 303 280 289 299 287 272 263 267 262 254 253 253 257 260 260 258 260 263 258 253 252 253 254 254 251 250 253 256 255 255 258 261 262 262 261 260 260 259 259 259 258 258 259 259 260 260 260 259 259 258 259 259 259 258 256 254 253
257 253 255 253 252 257 264 267 268 271 277 284 290 291 291 289 288 290 291 291 292 292 293 290 286 289 289 278 284 307 347 298 291 280 272 282 263 256 259 259 261 262 265 268 269 269 266 260 255 252 254 257 259 258 258 261 261 258 259 262 262 261 261 261 260 260 260 261 260 259 259 258 259 261 262 262 261 260 260 259 259 259 259 257 254
240 236 242 247 253 262 269 277 283 291 295 296 297 297 297 297 297 300 302 302 301 300 297 289 282 281 274 263 266 275 244 254 268 284 292 270 225 263 272 259 261 266 267 272 277 277 273 267 261 257 255 255 257 259 260 263 265 266 264 263 262 261 261 262 262 262 261 261 261 260 260 259 259 260 262 263 264 262 259 258 257 257 258 258 256
229 227 235 242 250 262 274 296 308 315 314 312 311 311 312 313 315 316 318 316 308 300 294 287 280 274 271 268 257 243 239 237 248 274 282 263 249 279 288 268 264 269 271 273 274 278 279 275 269 264 261 260 260 260 261 263 266 268 268 266 265 262 261 262 262 262 262 262 261 260 260 261 261 261 262 263 264 263 261 259 259 257 257 257 257
217 205 207 212 209 237 324 350 348 343 335 333 330 331 334 332 329 327 324 319 311 302 294 289 284 277 273 271 264 255 247 244 255 269 277 278 276 284 288 277 273 277 280 278 273 274 278 279 278 273 269 267 268 268 267 268 270 272 272 270 268 265 263 261 262 262 261 261 260 260 260 260 260 261 261 262 262 262 262 261 261 259 256 255 256
195 182 178 173 160 126 44 17 2 358 351 352 352 349 347 342 336 331 324 320 315 308 304 301 291 283 279 272 268 266 260 253 258 269 277 282 288 297 289 275 287 293 288 280 279 279 275 276 279 278 276 274 274 275 274 274 275 275 276 276 274 272 269 266 265 264 264 263 262 260 259 259 259 259 259 259 260 260 261 260 261 260 258 254 254
183 172 168 166 164 164 39 15 5 4 2 359 359 356 351 346 340 333 327 322 321 319 318 315 301 293 288 277 270 267 267 268 267 271 278 281 288 286 273 286 299 301 294 283 288 296 293 287 283 280 279 277 275 278 279 280 280 279 278 278 278 277 275 274 272 271 270 269 268 267 265 263 262 261 260 259 259 259 260 260 260 260 259 256 254
189 186 188 199 220 246 301 346 355 0 2 359 356 355 353 350 343 337 332 326 324 323 322 318 309 304 298 288 280 273 272 276 278 274 277 281 274 259 269 301 299 293 296 296 301 308 308 305 300 293 288 284 281 279 280 281 282 283 283 281 280 279 277 275 275 274 274 274 274 273 272 271 268 266 265 263 262 260 259 259 260 259 259 258 255
204 211 217 226 241 261 291 322 338 344 348 349 348 347 347 349 344 338 332 328 325 321 318 314 309 305 299 291 284 280 275 270 271 272 272 275 269 262 269 275 268 273 287 294 302 310 310 311 307 301 298 297 295 291 288 285 282 283 284 284 283 282 280 278 276 274 273 273 274 274 275 275 274 272 270 269 267 264 261 259 259 259 259 258 257
212 217 224 233 244 261 286 309 322 329 332 334 337 340 341 341 340 335 329 325 322 318 313 309 305 302 297 292 287 283 280 273 273 275 273 272 271 271 271 267 269 277 285 296 312 318 319 322 314 309 309 308 304 302 300 296 292 289 286 284 282 281 280 280 279 278 276 274 273 273 273 273 274 274 273 272 270 268 265 262 259 259 259 258 258
216 220 229 240 251 268 288 300 309 316 320 322 327 331 333 333 331 329 325 321 319 314 309 305 302 299 294 293 292 287 284 285 285 285 283 282 282 282 281 283 291 295 297 309 318 314 317 317 309 305 306 305 303 302 301 301 298 296 294 288 284 282 280 280 280 279 278 277 275 274 273 272 272 272 272 271 271 269 268 265 262 260 259 258 258
222 229 238 248 259 272 285 293 297 304 310 315 319 322 325 325 324 321 318 316 314 310 306 301 298 295 291 291 291 287 288 293 294 291 289 292 296 298 297 298 301 302 306 313 307 303 305 303 296 292 289 290 293 295 297 298 297 298 298 294 288 285 283 281 281 280 279 278 277 275 274 273 272 271 270 270 269 268 267 266 265 263 261 259 259
229 238 246 253 263 273 281 287 291 296 301 306 309 313 316 318 318 315 310 310 308 304 301 297 293 292 291 291 289 288 290 294 292 291 293 296 298 300 300 297 296 298 301 300 296 297 298 298 297 291 285 283 284 289 293 293 292 295 298 297 293 290 287 283 281 281 280 278 277 276 274 273 272 272 271 269 268 267 266 264 263 263 262 261 260
236 243 250 258 268 276 283 287 290 293 296 299 303 306 310 312 313 311 305 302 302 299 296 293 291 291 293 294 293 292 295 293 288 288 291 294 294 294 294 295 297 299 300 298 293 290 291 293 294 292 293 295 297 299 298 295 292 292 293 294 294 293 291 287 282 280 280 280 278 277 276 275 273 272 271 270 269 267 266 264 262 261 261 261 260
241 245 251 258 265 274 281 284 287 290 292 295 300 303 303 304 306 307 303 298 296 295 293 291 288 289 292 294 295 296 296 290 285 284 284 287 290 290 293 297 300 301 301 302 302 299 296 297 298 298 300 305 311 311 308 305 299 294 293 293 293 293 292 291 287 282 280 280 280 279 278 277 276 274 272 271 270 268 267 266 263 261 260 259 259
241 246 252 256 261 269 277 281 285 288 290 293 298 301 301 298 297 299 299 296 292 289 287 286 285 286 288 290 292 292 291 291 289 286 283 282 283 285 289 293 295 297 299 301 304 305 304 304 304 304 304 308 311 312 311 309 304 300 298 295 294 293 291 291 290 286 283 281 281 281 280 279 278 276 274 273 272 270 269 267 266 264 262 260 259
241 248 255 259 263 267 273 280 284 286 287 287 289 293 296 294 292 294 296 294 290 285 282 282 281 282 284 285 285 285 289 295 294 289 287 284 282 284 286 288 291 294 297 298 300 302 302 303 302 300 302 303 304 306 307 306 304 303 301 298 296 294 293 293 292 290 286 283 282 282 281 280 279 277 275 274 273 272 271 270 269 268 266 263 261
247 251 256 261 264 267 276 283 285 284 285 285 285 287 289 289 285 285 291 291 288 284 279 278 277 277 278 278 278 282 286 290 291 290 290 289 286 286 288 291 293 293 295 297 297 295 296 299 299 299 301 300 300 302 303 303 303 302 301 299 296 293 291 292 292 292 290 287 285 284 282 281 280 280 279 276 274 273 272 271 271 270 269 267 265
253 255 262 268 271 276 283 287 285 284 284 285 286 285 288 292 286 278 282 288 286 282 275 272 272 273 274 273 273 276 279 284 288 290 290 290 289 290 291 293 295 294 294 295 294 293 293 294 296 298 301 300 300 301 301 300 300 299 298 298 296 293 290 289 289 290 290 289 288 287 285 282 280 280 279 278 276 273 272 271 270 270 270 270 268
256 262 271 276 279 281 283 285 284 283 284 287 288 285 286 294 293 281 279 282 282 280 274 269 269 271 272 272 273 273 275 282 288 289 290 291 292 294 296 297 297 296 296 296 296 298 297 295 294 296 297 298 298 299 298 297 296 295 295 295 295 295 294 292 291 290 291 292 291 289 287 284 281 278 276 276 275 273 271 270 269 269 270 270 269
262 272 276 277 282 285 283 284 285 282 280 283 286 284 282 289 293 285 278 278 277 275 272 267 265 269 271 269 270 273 275 279 284 286 288 291 293 295 297 298 298 298 299 300 301 302 303 302 301 300 299 298 296 295 295 294 294 293 292 292 292 293 294 295 294 294 293 292 290 288 288 286 282 278 276 275 274 274 272 271 270 270 270 270 270
274 282 281 279 284 287 285 284 284 282 278 278 280 282 282 285 288 284 279 278 277 273 268 264 262 264 268 269 271 273 275 277 279 283 286 289 292 294 295 296 297 299 301 303 304 307 308 307 306 306 304 301 297 294 294 294 293 292 291 290 289 289 291 293 294 295 294 291 289 288 287 286 284 281 278 276 275 275 274 273 272 271 270 269 270
286 292 290 285 284 283 282 281 281 281 279 277 276 277 280 283 283 281 278 277 276 273 267 263 263 262 262 267 273 273 273 274 276 280 286 290 292 294 296 296 297 300 301 302 306 309 309 307 306 306 304 301 299 297 296 294 291 290 290 289 289 289 291 292 292 293 293 291 289 288 287 286 285 283 280 276 275 274 274 273 273 272 271 269 267
286 289 287 284 282 280 279 278 278 279 280 279 276 276 280 281 278 278 277 275 276 274 268 262 262 262 260 262 266 268 269 270 272 276 283 291 295 295 296 296 298 302 303 302 305 306 306 306 306 304 302 299 298 297 296 294 292 289 288 288 289 291 292 293 293 292 292 291 290 288 287 287 286 285 282 278 274 272 271 271 271 269 268 268 267
286 287 284 283 282 281 279 278 278 279 279 278 277 277 281 280 276 275 276 275 276 275 271 265 260 256 254 257 261 263 266 269 269 274 283 292 298 297 298 299 299 303 304 304 306 306 305 306 304 303 302 299 297 296 295 294 292 290 290 290 290 290 290 291 292 291 291 291 289 288 288 287 286 285 283 281 278 273 268 264 264 264 264 265 266
285 286 285 285 283 281 279 278 279 279 279 278 276 276 279 279 276 276 276 276 275 274 275 276 273 264 253 251 259 261 264 269 268 272 283 292 296 296 298 300 300 303 306 307 309 307 305 304 303 302 302 300 299 297 295 294 292 291 291 291 291 290 289 289 290 291 291 291 290 290 289 288 286 285 283 281 279 276 270 264 262 262 263 263 262
284 284 284 284 281 278 277 277 278 279 278 278 276 275 278 277 276 276 277 276 275 274 278 283 287 281 263 249 254 258 259 265 267 270 280 288 293 297 301 305 305 306 307 307 307 306 304 303 302 302 302 301 300 298 296 294 293 292 291 289 288 289 290 289 289 290 291 291 292 291 289 287 286 284 282 280 278 276 273 270 268 268 266 263 260
284 282 284 286 283 280 277 276 276 277 277 278 276 275 277 277 277 277 276 274 271 272 278 282 290 292 273 250 251 257 256 262 266 271 280 286 292 300 305 307 308 308 307 306 305 305 305 304 303 304 303 303 302 299 296 294 293 292 291 289 289 290 290 289 289 290 291 292 293 292 289 288 286 284 283 281 278 277 276 275 276 275 273 269 265
287 288 290 291 288 284 280 277 275 274 275 276 275 276 276 276 277 277 276 273 268 268 276 281 289 294 278 252 250 257 256 260 264 266 273 282 291 301 305 303 304 306 306 305 305 305 305 304 304 304 304 303 302 300 299 296 294 292 290 289 290 291 290 290 291 292 294 295 294 292 291 291 290 287 285 283 281 280 279 279 278 277 276 275 274
289 291 292 291 288 285 282 279 274 272 272 273 273 275 275 274 276 277 275 272 268 269 276 281 288 291 276 253 249 255 256 261 267 270 275 282 291 298 301 301 303 306 306 305 305 305 305 304 303 304 303 302 303 303 301 298 296 292 289 288 290 291 292 293 294 297 299 299 296 293 292 293 292 289 286 285 284 283 282 280 279 277 277 277 276
290 293 292 289 285 283 282 280 276 271 270 271 272 273 273 273 275 275 274 271 268 270 276 281 287 286 270 252 249 255 258 263 268 272 278 283 287 292 297 303 307 307 306 305 304 303 302 301 301 302 302 303 303 302 299 298 296 293 291 291 293 294 296 297 298 300 302 301 298 295 293 294 293 289 287 287 287 286 284 284 283 283 282 281 280
294 296 293 287 284 282 281 280 276 271 269 272 275 274 273 273 274 274 275 273 270 272 276 280 286 280 261 249 251 256 262 266 270 277 284 288 291 294 300 308 307 303 303 303 302 301 300 300 301 302 303 303 302 300 298 297 295 292 293 295 297 299 300 300 299 300 301 300 297 295 293 293 293 292 292 294 294 291 289 288 289 289 288 286 286
298 299 295 290 287 284 282 279 275 272 271 273 274 272 269 271 272 273 275 276 276 278 277 279 284 275 255 248 253 258 264 271 275 281 288 293 297 302 307 308 303 300 301 302 300 300 301 301 301 303 303 302 301 299 298 297 294 294 297 299 301 303 302 301 300 300 301 299 298 299 299 299 299 299 300 301 299 296 294 294 294 293 291 290 289
302 302 299 296 293 288 284 280 276 275 275 274 273 272 271 272 273 274 276 279 280 282 281 279 280 269 252 248 253 259 267 275 278 282 288 293 298 303 306 304 301 301 303 303 301 300 299 298 298 300 300 299 298 297 297 296 295 297 299 300 302 304 302 301 302 302 302 301 303 305 303 302 303 304 304 303 301 299 299 299 298 296 294 292 291
307 308 307 304 298 289 284 282 278 274 275 277 277 277 276 276 277 278 279 280 282 284 283 278 272 259 249 250 257 264 271 275 280 285 290 293 297 300 302 302 302 304 305 305 303 301 299 297 297 296 295 295 295 295 294 294 294 296 297 298 302 304 302 302 303 304 304 304 308 310 304 302 305 305 303 303 302 302 302 301 299 298 296 296 296
312 311 308 304 297 288 283 282 276 269 270 276 276 274 271 272 278 283 285 284 285 284 278 270 261 252 249 253 260 268 275 278 282 286 289 293 298 300 300 301 303 305 305 304 302 300 299 299 299 298 297 295 294 293 293 292 292 292 293 297 302 304 303 304 305 305 304 307 313 312 305 304 306 304 303 305 304 303 304 302 301 300 301 302 301
315 310 303 296 288 284 282 279 272 267 269 274 276 275 273 272 278 286 288 286 282 276 266 258 252 250 252 254 259 271 282 284 285 288 292 296 298 298 298 300 303 304 304 302 299 298 298 299 299 299 299 297 295 295 295 295 294 293 295 298 301 303 303 304 306 306 305 308 314 311 304 303 304 302 304 305 304 303 304 303 304 305 307 307 304
Height
3216 3215 3215 3215 3215 3215 3214 3214 3214 3214 3213 3213 3213 3212 3212 3212 3212 3212 3211 3211 3210 3209 3207 3206 3205 3204 3203 3203 3202 3202 3201 3201 3200 3200 3200 3199 3199 3200 3200 3201 3201 3201 3202 3202 3202 3202 3202 3202 3203 3203 3204 3204 3204 3204 3204 3204 3205 3205 3206 3206 3207 3207 3208 3209 3209 3209 3210 3210 3211 3212 3212 3213 3213 3214 3215 3215 3216 3217 3218 3218 3218 3219 3218 3218 3218
3215 3215 3215 3215 3215 3214 3214 3213 3213 3213 3212 3212 3212 3211 3211 3211 3211 3211 3211 3210 3209 3208 3207 3205 3205 3204 3202 3202 3202 3201 3201 3200 3200 3199 3198 3198 3198 3199 3199 3199 3200 3200 3201 3201 3201 3201 3201 3201 3202 3203 3203 3203 3203 3203 3204 3204 3204 3205 3206 3206 3206 3207 3207 3208 3208 3209 3209 3210 3210 3211 3212 3212 3213 3213 3214 3214 3215 3216 3217 3218 3218 3219 3219 3218 3218
3214 3215 3215 3214 3214 3214 3213 3213 3213 3213 3213 3212 3212 3211 3211 3211 3210 3210 3209 3209 3208 3207 3206 3205 3204 3203 3201 3201 3201 3200 3200 3199 3199 3198 3198 3197 3197 3198 3198 3198 3199 3199 3200 3200 3200 3200 3200 3201 3201 3202 3202 3202 3202 3203 3203 3203 3204 3204 3205 3205 3206 3206 3206 3207 3208 3208 3209 3209 3210 3210 3211 3212 3212 3213 3213 3213 3214 3215 3215 3216 3217 3218 3218 3218 3218
3214 3214 3214 3214 3214 3214 3213 3213 3213 3213 3212 3212 3211 3211 3211 3210 3210 3209 3209 3208 3207 3206 3205 3204 3203 3202 3201 3200 3200 3200 3199 3199 3198 3198 3197 3197 3197 3197 3197 3197 3198 3198 3198 3199 3199 3199 3199 3200 3200 3200 3201 3201 3201 3202 3202 3202 3202 3203 3204 3204 3205 3205 3206 3206 3207 3207 3208 3209 3209 3209 3210 3211 3211 3212 3212 3213 3213 3213 3214 3215 3216 3217 3217 3218 3218
3213 3214 3213 3213 3213 3213 3213 3213 3213 3212 3212 3211 3211 3211 3210 3210 3209 3209 3208 3207 3207 3206 3204 3204 3202 3202 3201 3200 3200 3199 3199 3198 3198 3197 3197 3197 3197 3197 3197 3197 3197 3197 3198 3198 3198 3198 3198 3198 3199 3199 3199 3200 3200 3200 3201 3201 3202 3202 3203 3203 3204 3204 3205 3205 3206 3206 3207 3208 3208 3209 3209 3210 3211 3211 3212 3213 3213 3213 3213 3214 3215 3215 3216 3217 3218
3213 3213 3212 3212 3212 3212 3212 3212 3212 3212 3211 3211 3210 3210 3209 3210 3209 3208 3207 3206 3206 3205 3204 3203 3202 3201 3201 3200 3200 3199 3199 3198 3198 3197 3197 3197 3196 3196 3196 3196 3196 3197 3197 3197 3197 3197 3197 3198 3198 3198 3198 3198 3199 3199 3199 3199 3200 3201 3201 3202 3202 3203 3204 3204 3205 3205 3206 3207 3207 3208 3208 3209 3209 3210 3211 3212 3212 3213 3213 3213 3213 3214 3215 3216 3217
3212 3212 3211 3211 3211 3211 3211 3211 3212 3211 3210 3210 3210 3209 3208 3208 3208 3207 3205 3205 3204 3204 3203 3202 3201 3201 3200 3199 3199 3199 3198 3198 3198 3197 3197 3196 3196 3196 3196 3196 3195 3196 3196 3196 3196 3196 3196 3196 3197 3197 3197 3197 3198 3198 3197 3197 3198 3198 3199 3200 3200 3201 3202 3202 3203 3204 3205 3206 3206 3207 3207 3208 3208 3209 3210 3210 3211 3212 3212 3212 3212 3213 3213 3214 3215
3211 3211 3210 3210 3210 3211 3210 3210 3211 3210 3210 3210 3209 3208 3207 3207 3207 3206 3204 3204 3203 3202 3202 3200 3199 3200 3200 3199 3199 3198 3198 3198 3198 3197 3197 3196 3196 3196 3196 3196 3195 3195 3195 3195 3195 3195 3195 3195 3195 3196 3196 3196 3197 3197 3197 3197 3197 3198 3198 3198 3197 3198 3199 3201 3203 3203 3204 3205 3206 3206 3207 3208 3208 3209 3209 3210 3210 3211 3211 3212 3212 3212 3212 3213 3214
3210 3210 3210 3209 3209 3210 3209 3209 3210 3210 3210 3210 3208 3207 3207 3206 3205 3204 3203 3203 3202 3201 3200 3199 3198 3198 3199 3198 3198 3197 3197 3197 3197 3197 3196 3196 3196 3196 3196 3196 3195 3195 3195 3195 3194 3194 3194 3194 3194 3194 3195 3195 3195 3196 3196 3197 3197 3197 3197 3197 3196 3196 3198 3202 3203 3202 3202 3203 3205 3206 3207 3207 3208 3208 3209 3209 3209 3210 3210 3210 3211 3211 3211 3212 3212
3210 3209 3209 3209 3209 3208 3208 3208 3208 3209 3209 3208 3207 3206 3206 3205 3204 3203 3202 3201 3200 3200 3199 3198 3197 3197 3197 3197 3197 3197 3197 3197 3197 3196 3196 3196 3196 3196 3196 3195 3195 3195 3195 3195 3194 3194 3193 3193 3193 3193 3193 3194 3194 3194 3195 3195 3196 3196 3196 3196 3195 3194 3198 3202 3201 3199 3200 3202 3205 3206 3206 3206 3206 3207 3207 3208 3208 3209 3209 3210 3210 3210 3210 3210 3211
3209 3208 3208 3208 3208 3208 3207 3207 3207 3207 3207 3206 3205 3205 3204 3203 3202 3202 3201 3200 3199 3198 3198 3197 3197 3197 3196 3196 3196 3196 3196 3197 3196 3196 3196 3195 3196 3196 3195 3195 3194 3195 3195 3194 3194 3194 3193 3193 3193 3193 3193 3193 3193 3193 3193 3193 3194 3194 3194 3194 3194 3194 3199 3201 3200 3198 3200 3204 3205 3205 3204 3204 3205 3205 3205 3206 3207 3207 3208 3208 3209 3209 3209 3209 3210
3207 3207 3207 3207 3207 3207 3206 3206 3206 3206 3205 3204 3203 3203 3202 3201 3201 3200 3199 3198 3198 3197 3197 3196 3196 3196 3195 3195 3195 3195 3196 3196 3196 3195 3195 3195 3195 3195 3194 3194 3194 3194 3194 3194 3193 3193 3193 3193 3193 3193 3193 3192 3192 3192 3191 3191 3192 3192 3192 3193 3193 3195 3197 3198 3198 3198 3200 3203 3203 3202 3202 3203 3203 3203 3203 3204 3204 3205 3206 3207 3207 3208 3208 3208 3209
3206 3206 3206 3206 3205 3205 3205 3204 3204 3204 3204 3202 3202 3201 3201 3200 3199 3198 3198 3197 3196 3196 3196 3195 3194 3194 3194 3194 3194 3194 3195 3195 3195 3194 3194 3194 3194 3194 3193 3193 3193 3193 3193 3193 3192 3192 3192 3192 3192 3192 3192 3191 3191 3191 3190 3190 3191 3191 3191 3191 3192 3193 3195 3196 3197 3198 3199 3200 3200 3200 3201 3200 3200 3201 3201 3202 3202 3203 3204 3205 3205 3206 3207 3207 3208
3204 3204 3205 3204 3204 3203 3203 3203 3202 3202 3202 3201 3200 3200 3199 3199 3198 3197 3196 3196 3195 3194 3194 3194 3193 3193 3194 3194 3194 3194 3194 3194 3194 3194 3194 3194 3193 3192 3191 3192 3192 3192 3192 3192 3192 3191 3191 3191 3191 3191 3191 3191 3191 3190 3190 3189 3190 3190 3190 3190 3191 3191 3193 3193 3195 3196 3196 3197 3198 3198 3199 3199 3199 3199 3200 3200 3201 3201 3202 3202 3203 3204 3205 3205 3206
3203 3204 3204 3203 3203 3202 3202 3202 3201 3201 3200 3200 3200 3199 3198 3198 3197 3196 3196 3195 3194 3193 3193 3193 3192 3193 3193 3193 3193 3193 3193 3194 3193 3193 3194 3193 3193 3191 3190 3190 3191 3191 3191 3191 3191 3191 3190 3190 3190 3190 3190 3190 3190 3190 3189 3188 3188 3189 3189 3189 3190 3190 3190 3191 3192 3193 3193 3195 3196 3197 3197 3197 3197 3197 3198 3198 3198 3199 3200 3201 3202 3202 3203 3203 3204
3202 3202 3203 3202 3202 3202 3201 3201 3201 3200 3200 3200 3199 3198 3197 3197 3196 3195 3195 3194 3193 3192 3192 3192 3192 3192 3192 3192 3192 3193 3193 3193 3192 3192 3192 3192 3192 3190 3189 3189 3190 3190 3190 3190 3189 3189 3189 3189 3189 3189 3188 3188 3188 3188 3188 3187 3187 3188 3188 3189 3189 3189 3189 3189 3190 3190 3191 3192 3193 3194 3194 3195 3195 3195 3195 3196 3196 3198 3198 3199 3200 3200 3201 3201 3202
3201 3201 3201 3201 3201 3201 3201 3201 3201 3200 3200 3199 3198 3197 3196 3196 3195 3195 3194 3194 3193 3192 3191 3191 3191 3191 3191 3191 3192 3192 3192 3192 3192 3191 3191 3191 3192 3190 3188 3188 3188 3189 3189 3188 3188 3188 3187 3188 3187 3187 3187 3187 3186 3186 3186 3186 3185 3186 3187 3187 3187 3187 3187 3187 3188 3188 3189 3189 3190 3190 3191 3192 3192 3193 3193 3193 3194 3195 3196 3196 3197 3198 3199 3199 3200
3200 3200 3200 3201 3201 3201 3201 3200 3200 3199 3199 3198 3197 3196 3196 3195 3194 3194 3193 3193 3192 3192 3191 3191 3190 3190 3190 3190 3191 3191 3191 3191 3191 3191 3190 3190 3190 3189 3188 3187 3187 3188 3187 3187 3187 3186 3186 3186 3186 3186 3185 3185 3185 3185 3184 3184 3183 3184 3185 3185 3185 3185 3185 3185 3185 3186 3186 3187 3187 3188 3188 3188 3189 3189 3190 3191 3192 3192 3193 3194 3194 3195 3196 3197 3198
3200 3200 3201 3201 3201 3201 3200 3200 3199 3199 3198 3198 3197 3196 3195 3194 3193 3193 3192 3192 3192 3191 3191 3190 3190 3189 3189 3189 3190 3190 3190 3190 3190 3189 3189 3189 3189 3188 3188 3186 3186 3186 3186 3185 3185 3185 3185 3184 3184 3184 3184 3184 3183 3183 3183 3182 3182 3182 3182 3183 3183 3183 3183 3183 3183 3183 3184 3184 3184 3185 3185 3186 3186 3186 3187 3188 3189 3189 3190 3191 3192 3192 3193 3194 3195
3200 3200 3201 3201 3201 3200 3200 3199 3199 3199 3198 3198 3197 3196 3195 3194 3193 3192 3191 3191 3191 3191 3190 3190 3189 3189 3188 3188 3188 3189 3189 3189 3189 3188 3188 3188 3188 3188 3188 3186 3185 3184 3184 3183 3183 3183 3183 3183 3183 3182 3182 3182 3182 3181 3181 3180 3180 3180 3180 3180 3180 3181 3180 3181 3181 3181 3181 3181 3181 3182 3182 3183 3183 3183 3184 3185 3186 3187 3188 3188 3188 3189 3190 3191 3192
3200 3200 3201 3201 3200 3200 3200 3199 3199 3198 3198 3197 3196 3195 3194 3193 3192 3192 3191 3190 3190 3189 3189 3189 3188 3188 3188 3187 3187 3187 3187 3187 3187 3187 3187 3187 3187 3187 3187 3187 3185 3183 3182 3182 3181 3181 3181 3181 3181 3181 3180 3180 3180 3179 3179 3179 3178 3178 3178 3178 3178 3178 3178 3178 3178 3178 3178 3178 3178 3179 3179 3180 3180 3180 3181 3181 3182 3183 3184 3185 3185 3186 3187 3187 3189
3200 3200 3200 3200 3200 3200 3199 3199 3199 3198 3197 3197 3196 3195 3194 3193 3192 3191 3191 3190 3189 3188 3188 3188 3187 3187 3187 3187 3186 3186 3186 3186 3185 3186 3185 3186 3186 3186 3186 3186 3185 3182 3181 3180 3180 3179 3179 3179 3179 3179 3178 3178 3178 3177 3177 3177 3176 3176 3176 3176 3176 3175 3175 3175 3175 3175 3175 3175 3175 3175 3176 3176 3177 3177 3178 3178 3178 3179 3180 3181 3182 3182 3183 3184 3185
3199 3199 3199 3199 3199 3199 3199 3198 3198 3197 3197 3196 3195 3194 3193 3193 3192 3191 3190 3189 3188 3187 3187 3187 3186 3186 3186 3185 3185 3185 3185 3184 3184 3184 3184 3184 3184 3184 3184 3184 3183 3182 3180 3178 3178 3178 3177 3177 3177 3176 3176 3176 3175 3175 3175 3175 3174 3174 3174 3173 3173 3172 3172 3172 3172 3172 3173 3173 3173 3173 3173 3173 3173 3174 3174 3175 3175 3176 3176 3177 3178 3179 3180 3180 3181
3198 3198 3198 3198 3198 3198 3198 3197 3197 3196 3196 3195 3195 3194 3193 3192 3192 3191 3190 3189 3188 3187 3186 3186 3186 3185 3185 3184 3184 3183 3183 3183 3183 3182 3182 3182 3182 3182 3182 3181 3181 3181 3179 3177 3177 3176 3175 3175 3174 3173 3173 3173 3173 3173 3173 3172 3171 3172 3172 3171 3170 3170 3169 3169 3169 3170 3170 3170 3170 3170 3170 3170 3170 3171 3171 3171 3172 3172 3173 3173 3174 3175 3176 3177 3178
3197 3197 3197 3197 3197 3197 3197 3197 3196 3196 3195 3195 3194 3193 3193 3192 3191 3190 3190 3189 3188 3187 3186 3185 3185 3184 3184 3183 3183 3182 3181 3181 3181 3180 3180 3179 3179 3179 3179 3179 3179 3178 3177 3176 3176 3175 3175 3174 3174 3172 3171 3171 3171 3170 3170 3169 3168 3168 3169 3169 3168 3167 3167 3167 3166 3166 3167 3167 3167 3167 3167 3167 3167 3167 3167 3168 3168 3169 3169 3169 3170 3171 3171 3172 3173
3196 3196 3196 3196 3196 3196 3196 3196 3195 3195 3194 3194 3193 3193 3192 3191 3190 3190 3189 3188 3187 3186 3185 3185 3184 3184 3183 3182 3182 3181 3180 3180 3179 3179 3178 3178 3178 3177 3177 3177 3177 3176 3176 3175 3175 3174 3174 3173 3173 3172 3171 3170 3170 3168 3168 3167 3166 3165 3165 3165 3164 3164 3164 3164 3163 3163 3163 3163 3163 3164 3163 3163 3163 3163 3164 3164 3164 3165 3165 3166 3166 3166 3167 3168 3169
3194 3194 3194 3195 3195 3195 3195 3194 3194 3194 3193 3193 3192 3191 3191 3190 3190 3189 3188 3187 3186 3186 3185 3184 3184 3183 3182 3182 3181 3180 3179 3179 3178 3178 3178 3177 3177 3176 3176 3175 3175 3174 3174 3174 3173 3173 3172 3171 3170 3169 3168 3169 3168 3167 3166 3166 3164 3163 3162 3162 3161 3161 3161 3161 3161 3160 3160 3160 3160 3160 3159 3159 3159 3159 3159 3160 3160 3160 3161 3161 3162 3162 3163 3163 3164
3192 3193 3193 3193 3193 3193 3193 3193 3193 3192 3192 3191 3190 3190 3189 3189 3188 3188 3187 3186 3186 3184 3184 3183 3182 3182 3181 3180 3179 3178 3178 3178 3177 3177 3177 3176 3176 3175 3174 3174 3173 3172 3171 3171 3172 3172 3171 3170 3169 3167 3165 3165 3165 3165 3164 3163 3162 3161 3160 3160 3159 3158 3158 3158 3158 3157 3156 3156 3155 3155 3155 3155 3155 3155 3155 3155 3156 3156 3156 3157 3157 3158 3158 3159 3159
3191 3191 3191 3191 3191 3191 3191 3191 3191 3191 3191 3190 3189 3188 3188 3187 3187 3186 3186 3185 3184 3183 3182 3181 3181 3180 3179 3179 3178 3177 3177 3176 3176 3175 3175 3175 3175 3174 3173 3172 3171 3170 3169 3168 3169 3169 3169 3168 3168 3165 3162 3161 3161 3161 3161 3160 3159 3158 3158 3157 3157 3156 3155 3155 3155 3154 3153 3152 3152 3151 3151 3151 3151 3151 3151 3151 3151 3151 3151 3152 3152 3153 3153 3154 3154
3189 3189 3189 3189 3189 3189 3189 3189 3190 3190 3189 3189 3189 3188 3187 3186 3185 3184 3184 3183 3182 3181 3180 3180 3179 3179 3178 3177 3177 3176 3175 3175 3174 3174 3174 3174 3173 3173 3172 3172 3171 3170 3168 3167 3167 3167 3166 3165 3165 3163 3162 3160 3158 3157 3157 3156 3156 3155 3155 3155 3154 3154 3153 3152 3151 3151 3150 3150 3149 3148 3148 3147 3147 3147 3147 3146 3146 3146 3146 3147 3147 3148 3149 3149 3150
3187 3187 3187 3187 3187 3187 3187 3187 3188 3188 3188 3187 3187 3186 3185 3185 3184 3182 3182 3181 3180 3180 3179 3178 3178 3177 3176 3176 3175 3174 3174 3173 3173 3172 3172 3172 3172 3172 3171 3171 3170 3169 3167 3166 3166 3166 3164 3162 3162 3162 3160 3159 3157 3155 3154 3154 3153 3151 3151 3151 3151 3150 3149 3149 3148 3148 3147 3147 3146 3145 3144 3144 3143 3143 3143 3142 3142 3142 3142 3142 3142 3143 3143 3144 3145
3184 3184 3185 3185 3185 3185 3186 3185 3185 3185 3185 3184 3184 3184 3183 3182 3182 3181 3179 3178 3178 3178 3177 3176 3176 3175 3175 3174 3173 3173 3172 3171 3171 3170 3170 3170 3170 3169 3169 3168 3167 3166 3166 3165 3164 3165 3164 3161 3160 3159 3159 3157 3155 3154 3152 3151 3150 3148 3148 3147 3147 3147 3146 3145 3145 3144 3144 3143 3142 3142 3141 3140 3139 3139 3138 3138 3138 3138 3137 3137 3137 3137 3138 3139 3139
3182 3183 3183 3184 3184 3184 3183 3182 3181 3181 3181 3180 3180 3180 3180 3179 3179 3178 3177 3176 3175 3175 3175 3174 3174 3173 3173 3172 3172 3171 3171 3170 3169 3169 3168 3168 3167 3167 3166 3165 3165 3164 3163 3163 3162 3162 3162 3161 3159 3157 3157 3154 3152 3152 3150 3149 3147 3146 3145 3144 3143 3143 3142 3142 3142 3141 3140 3139 3138 3138 3137 3137 3136 3135 3134 3133 3133 3133 3133 3133 3132 3132 3133 3133 3134
3181 3181 3182 3181 3181 3180 3179 3177 3177 3177 3176 3176 3175 3175 3176 3175 3175 3175 3175 3174 3173 3172 3172 3171 3171 3171 3171 3171 3170 3169 3169 3169 3168 3167 3167 3166 3165 3165 3163 3163 3163 3162 3161 3160 3159 3158 3159 3159 3158 3156 3155 3153 3150 3149 3148 3146 3144 3143 3142 3141 3140 3139 3139 3138 3138 3137 3136 3135 3134 3133 3133 3133 3132 3131 3130 3129 3128 3128 3128 3128 3128 3128 3128 3128 3128
3179 3179 3178 3177 3176 3174 3173 3172 3173 3173 3172 3171 3170 3171 3171 3171 3172 3172 3171 3171 3170 3170 3170 3169 3168 3168 3168 3169 3168 3168 3167 3167 3166 3166 3165 3164 3163 3162 3161 3160 3160 3159 3159 3157 3156 3155 3154 3154 3154 3153 3151 3150 3149 3147 3145 3143 3141 3140 3138 3137 3137 3136 3135 3134 3134 3133 3133 3131 3130 3129 3129 3128 3128 3127 3126 3125 3124 3124 3123 3123 3123 3123 3123 3123 3123
3176 3174 3173 3172 3171 3169 3168 3168 3169 3169 3167 3167 3167 3167 3166 3167 3168 3168 3168 3168 3168 3167 3167 3166 3165 3165 3166 3166 3166 3166 3166 3165 3164 3164 3163 3162 3161 3160 3159 3159 3158 3157 3157 3155 3154 3153 3151 3150 3150 3149 3147 3146 3145 3144 3142 3140 3138 3136 3135 3134 3133 3133 3132 3131 3130 3129 3128 3127 3126 3125 3124 3123 3123 3122 3122 3121 3120 3119 3119 3118 3118 3119 3119 3119 3118
3171 3170 3169 3168 3167 3166 3165 3165 3165 3165 3164 3163 3163 3163 3163 3163 3164 3164 3164 3164 3164 3164 3164 3164 3163 3163 3163 3163 3164 3164 3163 3163 3162 3161 3160 3160 3159 3158 3158 3157 3156 3155 3154 3154 3152 3150 3149 3147 3147 3146 3144 3142 3141 3140 3138 3137 3135 3133 3131 3130 3129 3129 3128 3127 3126 3125 3124 3123 3122 3121 3120 3119 3118 3118 3117 3116 3115 3115 3114 3113 3113 3113 3113 3113 3113
3168 3168 3166 3164 3164 3162 3161 3161 3161 3161 3160 3160 3159 3159 3160 3160 3160 3160 3160 3160 3160 3160 3161 3161 3161 3161 3161 3161 3161 3161 3161 3160 3160 3159 3158 3157 3157 3156 3156 3155 3154 3152 3151 3150 3150 3148 3146 3144 3143 3143 3141 3139 3137 3136 3134 3133 3131 3130 3128 3127 3126 3125 3123 3122 3122 3122 3120 3119 3118 3117 3115 3114 3113 3112 3112 3111 3110 3110 3109 3108 3108 3107 3107 3106 3107
3165 3164 3162 3160 3159 3159 3158 3157 3157 3157 3157 3156 3155 3155 3156 3156 3156 3156 3156 3157 3157 3156 3156 3157 3158 3159 3159 3158 3158 3158 3158 3157 3157 3157 3156 3155 3155 3154 3153 3152 3151 3150 3148 3147 3146 3144 3142 3140 3138 3138 3136 3135 3134 3132 3131 3129 3128 3127 3125 3123 3122 3121 3120 3118 3117 3117 3117 3115 3114 3113 3111 3109 3108 3107 3106 3106 3105 3104 3103 3103 3102 3101 3101 3100 3101
3161 3160 3158 3156 3155 3154 3153 3152 3153 3153 3153 3152 3151 3152 3152 3152 3152 3152 3152 3152 3152 3152 3152 3153 3154 3155 3156 3155 3154 3155 3155 3155 3155 3154 3154 3153 3152 3151 3150 3149 3149 3147 3145 3144 3142 3141 3139 3137 3135 3133 3132 3130 3129 3128 3127 3125 3124 3122 3121 3119 3118 3116 3115 3114 3113 3113 3112 3111 3109 3107 3106 3105 3103 3102 3101 3100 3099 3098 3097 3096 3095 3095 3096 3095 3095
3157 3156 3154 3153 3151 3150 3148 3148 3148 3148 3148 3147 3147 3147 3148 3148 3148 3149 3149 3148 3148 3148 3149 3149 3150 3151 3152 3151 3151 3151 3151 3151 3151 3152 3151 3150 3149 3149 3148 3146 3145 3143 3142 3140 3139 3138 3136 3134 3132 3130 3128 3127 3126 3125 3123 3121 3119 3118 3117 3115 3113 3112 3111 3109 3108 3108 3108 3106 3104 3102 3101 3100 3098 3097 3096 3094 3093 3093 3091 3090 3089 3089 3089 3089 3088
3153 3152 3151 3149 3147 3145 3144 3143 3144 3143 3142 3141 3142 3143 3144 3144 3144 3145 3144 3144 3145 3145 3146 3147 3147 3147 3148 3148 3147 3147 3147 3147 3147 3148 3148 3147 3146 3145 3144 3143 3141 3140 3138 3136 3135 3134 3132 3130 3128 3127 3125 3124 3123 3122 3120 3118 3116 3114 3112 3110 3109 3108 3106 3104 3103 3104 3104 3102 3099 3096 3095 3095 3094 3091 3090 3089 3087 3086 3085 3085 3085 3084 3083 3082 3082
3150 3149 3148 3146 3144 3141 3139 3139 3139 3138 3136 3135 3136 3139 3140 3140 3140 3140 3140 3140 3141 3141 3142 3143 3144 3143 3143 3144 3144 3143 3143 3143 3143 3143 3143 3143 3143 3142 3142 3140 3138 3136 3134 3133 3131 3130 3128 3126 3125 3123 3122 3120 3119 3118 3116 3114 3113 3111 3108 3106 3105 3104 3102 3100 3098 3098 3099 3098 3095 3091 3090 3090 3089 3086 3084 3082 3081 3081 3080 3079 3079 3078 3077 3077 3077
3147 3146 3145 3143 3141 3138 3135 3134 3134 3133 3131 3129 3132 3135 3136 3135 3135 3135 3135 3136 3136 3136 3137 3139 3140 3139 3139 3140 3140 3140 3140 3139 3139 3140 3141 3141 3140 3140 3139 3137 3135 3133 3131 3129 3127 3125 3124 3122 3120 3119 3118 3116 3114 3113 3112 3110 3109 3107 3104 3102 3101 3100 3098 3096 3093 3092 3093 3092 3090 3086 3084 3085 3083 3080 3077 3076 3076 3075 3074 3073 3073 3073 3072 3072 3071
3144 3143 3141 3139 3136 3135 3133 3131 3129 3128 3126 3124 3128 3131 3131 3131 3131 3130 3130 3130 3130 3131 3133 3135 3135 3135 3135 3136 3136 3136 3137 3136 3136 3138 3138 3137 3137 3137 3135 3133 3131 3129 3127 3125 3123 3121 3120 3118 3117 3115 3114 3112 3110 3109 3107 3105 3103 3102 3100 3099 3098 3096 3094 3092 3089 3087 3087 3087 3085 3081 3078 3079 3077 3073 3071 3071 3070 3069 3067 3067 3067 3066 3066 3065 3064
3139 3138 3136 3134 3132 3131 3130 3128 3126 3124 3121 3121 3124 3126 3125 3126 3126 3125 3124 3124 3125 3127 3129 3130 3131 3131 3131 3132 3132 3134 3134 3133 3133 3135 3134 3132 3132 3132 3130 3129 3127 3126 3124 3122 3120 3118 3116 3114 3113 3111 3110 3108 3106 3104 3103 3101 3099 3097 3096 3094 3093 3091 3088 3086 3084 3083 3083 3082 3080 3076 3073 3072 3071 3067 3065 3066 3064 3062 3061 3061 3061 3060 3059 3058 3056
3135 3133 3132 3129 3127 3126 3125 3123 3121 3119 3118 3118 3120 3121 3121 3121 3121 3120 3120 3120 3121 3123 3125 3126 3126 3127 3128 3128 3128 3130 3131 3130 3130 3131 3130 3129 3127 3126 3124 3124 3124 3122 3121 3119 3117 3114 3112 3110 3108 3106 3105 3104 3102 3099 3098 3096 3095 3093 3091 3088 3087 3085 3083 3080 3079 3079 3079 3078 3076 3072 3066 3064 3064 3061 3059 3059 3057 3056 3056 3055 3055 3054 3052 3050 3049
3130 3129 3127 3125 3123 3121 3120 3118 3117 3115 3114 3115 3116 3117 3118 3118 3117 3117 3116 3116 3118 3119 3120 3121 3121 3122 3124 3124 3125 3127 3127 3127 3127 3128 3127 3125 3122 3120 3120 3120 3119 3117 3116 3115 3113 3111 3109 3107 3105 3103 3101 3100 3098 3095 3094 3092 3090 3088 3086 3083 3082 3080 3077 3075 3073 3073 3073 3072 3071 3068 3061 3057 3057 3055 3052 3052 3051 3049 3049 3049 3047 3046 3044 3043 3041
3126 3125 3123 3122 3120 3117 3115 3114 3112 3111 3111 3112 3113 3114 3114 3114 3113 3113 3114 3114 3114 3115 3116 3116 3117 3118 3120 3122 3123 3124 3124 3124 3124 3124 3123 3121 3118 3117 3116 3115 3113 3112 3111 3110 3108 3106 3104 3102 3101 3100 3098 3096 3094 3092 3090 3089 3086 3084 3081 3079 3078 3075 3072 3071 3069 3068 3067 3067 3067 3064 3057 3053 3053 3050 3047 3046 3045 3043 3042 3041 3040 3038 3037 3035 3033
3123 3121 3119 3117 3115 3112 3111 3110 3109 3108 3108 3110 3110 3109 3109 3109 3109 3110 3110 3110 3111 3111 3112 3112 3113 3115 3118 3119 3120 3120 3120 3120 3120 3119 3118 3117 3115 3113 3112 3110 3109 3107 3106 3105 3104 3102 3099 3097 3095 3095 3094 3092 3090 3088 3087 3085 3084 3081 3077 3075 3074 3071 3068 3066 3065 3063 3061 3061 3062 3059 3052 3048 3048 3045 3041 3039 3037 3037 3036 3034 3033 3032 3030 3027 3023
3119 3117 3115 3112 3110 3108 3107 3106 3105 3104 3105 3106 3106 3104 3104 3105 3106 3107 3107 3107 3108 3108 3108 3109 3111 3113 3115 3116 3116 3117 3116 3116 3115 3114 3113 3112 3111 3110 3108 3106 3104 3103 3102 3100 3099 3098 3095 3093 3091 3089 3088 3087 3086 3084 3082 3081 3079 3077 3074 3071 3070 3067 3064 3062 3061 3058 3055 3056 3057 3054 3047 3044 3043 3040 3038 3034 3029 3029 3030 3028 3025 3024 3021 3018 3012